Simultaneous Nadir Overpasses (SNOs) Predictions

Prediction of SNOs between GOES-17 and TERRA Satellite Orbit:

Table of predicted SNOs for the next 14.0 days since TLE Epoch: 12/31/2022
Index Date Time (GOES-17) GOES-17 Lat,Lon TERRA Lat,Lon Distance(km) Time Diff (sec)
1 12/31/2022 07:24:53 -0.01,-137.33 -0.28,-138.52 136.17 80
2 01/02/2023 07:11:48 0.00,-137.32 0.56,-134.72 295.73 80
3 01/02/2023 19:29:29 -0.01,-137.32 0.46,-139.67 265.96 80
4 01/04/2023 19:16:23 -0.01,-137.31 -0.34,-135.86 165.47 80
5 01/05/2023 07:34:11 0.01,-137.30 -0.73,-140.82 400.86 80
6 01/07/2023 07:18:24 -0.00,-137.27 0.03,-137.00 30.17 80
7 01/09/2023 07:05:18 -0.01,-137.25 0.86,-133.20 460.66 80
8 01/09/2023 19:22:58 0.02,-137.24 0.20,-138.13 101.33 80
9 01/11/2023 19:09:51 0.03,-137.21 -0.60,-134.32 329.04 80
10 01/12/2023 07:27:38 -0.03,-137.20 -0.47,-139.28 237.50 80
